Dauntless Aviation
Airports Europe France
LFIY

Saint Jean d'Angely

FRANCE

Airport Info
Suggest Updated Information for this Airport

Location

Latitude / Longitude: 45°57'59"N / 0°31'31"W
  45°57.984'N / 0°31.518'W
  45.9664 / -0.5253

Runway Information

Runway 10 /28

Dimensions: 2789 x 164 ft.
Surface: U
 
Runway 10
Runway 28
Latitude: 45.966636 45.965728
Longitude: -0.528086 -0.518369
Elevation: 243 ft. 243 ft.
Runway true heading: 95.7 275.7
 

Instrument Procedures

IAPs (Instrument Approach Procedures)

  Visual Approch Chart
Satellite photo at:
Airport distance calculator
From:
Weather Reports

METAR

LFBG
20.0nm SE
LFBG 290830Z AUTO 15010KT CAVOK 20/11 Q1023 NOSIG
LFBH
27.2nm W
LFBH 290830Z AUTO 17007KT CAVOK 19/14 Q1022 BECMG 30012KT
LFBU
34.5nm E
LFBU 290830Z AUTO 16009KT 110V190 CAVOK 19/09 Q1024 NOSIG

TAF

LFBG
20.0nm SE
TAF LFBG 290500Z 2906/3006 11003KT CAVOK BECMG 2910/2912 20012KT BECMG 2919/2921 BKN008 BECMG 3002/3004 SCT008 BKN020
LFBH
27.2nm W
TAF LFBH 290500Z 2906/3006 VRB02KT CAVOK TEMPO 2906/2908 0500 BCFG NSC BECMG 2910/2912 30012KT TEMPO 2919/2924 BKN010 BECMG 3000/3002 VRB02KT BKN010
LFBU
34.5nm E
TAF LFBU 290500Z 2906/3006 14005KT CAVOK BECMG 2922/2924 3000 BR OVC010 TEMPO 3000/3003 0200 FG VV///
Safelog

 

Dauntless Aviation

© 2007-2016 Dauntless Aviation, all rights reserved
Information provided via PilotNav comes from a variety of official and unofficial data sources. As errors are possible, do not use PilotNav for primary flight planning purposes. Verify any information that you receive via PilotNav with current and canonical charts and other official documents. The material in this database is subject to database copyrights held by Dauntless Aviation and may not be copied without the express permission of Dauntless Aviation - licenses for use of part of all of this data are available for purchase; enquire via the Dauntless Aviation helpdesk. A number of mechanisms and markers exist in the database to protect against and identify infringement / copyright. Automated queries against this website are stictly prohibited, and all activity is logged and analyzed.